カタログに戻る

FENGYUN 1C DEB

運用中SSO
NORAD 31029·DEBRIS·🇨🇳 China

打ち上げ May 10, 1999 から Taiyuan Satellite Launch Center

Loading…

次のパス (今後24時間)

TLE

最新Source: Space-Track

元期: Sep 12, 2026, 16:58 UTC

1 31029U 99025BDX 26255.70695566  .00000566  00000-0  20708-3 0  9991
2 31029  98.8369 164.2361 0088685 349.6048  72.7540 14.34791178 17189

AllMySatでFENGYUN 1C DEBをリアルタイム追跡

Download on the App Store